{"data":{"norad_id":65194,"intl_designator":"2025-175W","name":"STARLINK-34926","alt_names":[],"object_type":"PAYLOAD","status":"ACTIVE","operator":null,"country":"US","launch_date":"2025-08-14","launch_site_code":"AFWTR","launch_vehicle":null,"mission":null,"orbit_class":"UNKNOWN","rcs_meters":null,"size_class":null,"mass_kg":null,"dimensions":null,"purposes":["comms"],"wikipedia_slug":null,"has_3d_model":false,"image_url":null,"decayed_at":null,"tle_current":{"epoch":"2026-05-25T02:34:08.798592Z","epoch_age_seconds":72722,"freshness":"FRESH","line1":"1 65194U 25175W   26145.10704628  .00006020  00000+0  42078-3 0  9992","line2":"2 65194  97.4512  17.6761 0002085  81.8780 278.2683 15.05663138 44114","mean_motion":15.05663138,"eccentricity":0.0002085,"inclination_deg":97.4512,"raan_deg":17.6761,"arg_perigee_deg":81.878,"mean_anomaly_deg":278.2683,"bstar":0.00042078,"rev_number":4411,"period_min":95.638922389558,"perigee_km":548.02644858194,"apogee_km":550.9152610574,"semimajor_km":6927.6078548197,"source":"CELESTRAK","updated_at":"2026-05-25T13:38:20.716513Z"}}}